This is the latest recevied weather packets stored in our database for station/object DK4ARL. If no packets are shown the sender has not sent any weather packets the latest 10 day(s).
| Time | Temp. | Humidity | Pressure | Rain* | Wind** | Luminosity | Snow |
|---|---|---|---|---|---|---|---|
| 1777494885 | 12.22° C | - | 986.2 hPa | 0 mm | - | - | - |
| 1777492243 | 12.78° C | - | 985.7 hPa | 0 mm | - | - | - |
| 1777491360 | 13.33° C | - | 985.6 hPa | 0 mm | - | - | - |
| 1777490476 | 13.33° C | - | 985.5 hPa | 0 mm | - | - | - |
| 1777488716 | 14.44° C | - | 985.1 hPa | 0 mm | - | - | - |
| 1777487829 | 15° C | - | 985 hPa | 0 mm | - | - | - |
| 1777486941 | 15.56° C | - | 984.8 hPa | 0 mm | - | - | - |
| 1777486052 | 16.11° C | - | 984.7 hPa | 0 mm | - | - | - |
| 1777485163 | 16.67° C | - | 984.6 hPa | 0 mm | - | - | - |
| 1777484272 | 16.67° C | - | 984.5 hPa | 0 mm | - | - | - |
| 1777483381 | 17.22° C | - | 984.5 hPa | 0 mm | - | - | - |
| 1777482488 | 17.78° C | - | 984.4 hPa | 0 mm | - | - | - |
| 1777481595 | 17.78° C | - | 984.4 hPa | 0 mm | - | - | - |
| 1777480700 | 18.33° C | - | 984.4 hPa | 0 mm | - | - | - |
| 1777479803 | 18.89° C | - | 984.3 hPa | 0 mm | - | - | - |
| 1777478905 | 18.89° C | - | 984.3 hPa | 0 mm | - | - | - |
| 1777478004 | 19.44° C | - | 984.3 hPa | 0 mm | - | - | - |
| 1777476195 | 20° C | - | 984.3 hPa | 0 mm | - | - | - |
| 1777475287 | 21.11° C | - | 984.3 hPa | 0 mm | - | - | - |
| 1777474376 | 21.67° C | - | 984.3 hPa | 0 mm | - | - | - |
| 1777473464 | 21.67° C | - | 984.3 hPa | 0 mm | - | - | - |
| 1777472552 | 21.67° C | - | 984.3 hPa | 0 mm | - | - | - |
| 1777471638 | 22.22° C | - | 984.3 hPa | 0 mm | - | - | - |
| 1777470724 | 22.22° C | - | 984.3 hPa | 0 mm | - | - | - |
| 1777469810 | 22.78° C | - | 984.3 hPa | 0 mm | - | - | - |
* Rain latest hour (hover to see other rain measurements)
** Current wind speed in m/s (hover to see current wind gust speed)